Overview Statistics Trail Chart Weather Telemetry Raw packets
 

This is the latest recevied weather packets stored in our database for station/object IZ2WYA-13. If no packets are shown the sender has not sent any weather packets the latest 10 day(s).

<< 15 16 17 18 19 20 >>
Time Temp. Humidity Pressure Rain* Wind** Luminosity Snow
1787811414 22.78° C 65% 1021.5 hPa - - - -
1787809613 22.78° C 67% 1021.4 hPa - - - -
1787807812 22.78° C 62% 1021.3 hPa - - - -
1787806011 22.78° C 62% 1021.1 hPa - - - -
1787804209 22.78° C 62% 1021 hPa - - - -
1787802408 23.33° C 62% 1020.8 hPa - - - -
1787800607 23.33° C 62% 1020.8 hPa - - - -
1787798805 23.33° C 62% 1020.7 hPa - - - -
1787797003 23.33° C 61% 1020.7 hPa - - - -
1787795202 23.33° C 62% 1020.8 hPa - - - -
1787793401 23.33° C 62% 1020.8 hPa - - - -
1787791600 23.89° C 62% 1020.7 hPa - - - -
1787789798 23.89° C 63% 1020.8 hPa - - - -
1787787997 23.89° C 60% 1021 hPa - - - -
1787786196 24.44° C 58% 1021.2 hPa - - - -
1787784395 24.44° C 57% 1021.2 hPa - - - -
1787782593 25° C 57% 1021 hPa - - - -
1787780792 25° C 58% 1020.8 hPa - - - -
1787778991 25.56° C 57% 1020.5 hPa - - - -
1787777190 25.56° C 56% 1020.2 hPa - - - -
1787775388 26.11° C 51% 1019.8 hPa - - - -
1787773587 26.11° C 53% 1019.6 hPa - - - -
1787771786 26.11° C 55% 1019.2 hPa - - - -
1787769985 26.67° C 59% 1019 hPa - - - -
1787768183 26.67° C 61% 1019.3 hPa - - - -

* Rain since midnight (hover to see other rain measurements)
** Current wind speed in m/s (hover to see current wind gust speed)